When you browse on this site, cookies collect data to enhance your experience and personalize the content and advertising you see.
Visit our Privacy Policy to learn more. By continuing to use the site, you agree to this use of cookies and data.
  • En España
  • Lista de países
  • Para 7 días
  • Temperatura del agua
  • El tiempo en el mapa
  • Informadores
  • user-avatar
    Iniciar sesión

    Tiempo cada hora Romny

    Hoy, 7 Abril, Martes

    Tiempo Temperatura Precipitaciones Viento Presión Humedad
    00:00 +5°C° 0 mm 2 mps 762 mmHg 70%
    01:00 +5°C° 0 mm 2 mps 762 mmHg 73%
    02:00 +5°C° 0 mm 2 mps 762 mmHg 76%
    03:00 +4°C° 0 mm 2 mps 762 mmHg 78%
    04:00 +4°C° 0 mm 2 mps 762 mmHg 81%
    05:00 +4°C° 0 mm 2 mps 762 mmHg 84%
    06:00 +5°C° 0 mm 2 mps 763 mmHg 79%
    07:00 +6°C° 0 mm 2 mps 763 mmHg 75%
    08:00 +7°C° 0 mm 2 mps 763 mmHg 71%
    09:00 +9°C° 0 mm 2 mps 763 mmHg 64%
    10:00 +10°C° 0 mm 3 mps 763 mmHg 58%
    11:00 +11°C° 0 mm 3 mps 763 mmHg 51%
    12:00 +13°C° 0 mm 2 mps 763 mmHg 49%
    13:00 +13°C° 0 mm 2 mps 763 mmHg 47%
    14:00 +14°C° 0 mm 2 mps 763 mmHg 44%
    15:00 +14°C° 0 mm 2 mps 763 mmHg 44%
    16:00 +14°C° 0 mm 1 mps 762 mmHg 44%
    17:00 +14°C° 0 mm 1 mps 762 mmHg 44%
    18:00 +12°C° 0 mm 1 mps 762 mmHg 48%
    19:00 +11°C° 0 mm 1 mps 762 mmHg 52%
    20:00 +9°C° 0 mm 2 mps 761 mmHg 56%
    21:00 +9°C° 0 mm 2 mps 761 mmHg 59%
    22:00 +8°C° 0 mm 2 mps 761 mmHg 61%
    23:00 +8°C° 0 mm 3 mps 761 mmHg 63%

    Mañana, 8 Abril, Miércoles

    Tiempo Temperatura Precipitaciones Viento Presión Humedad
    00:00 +7°C° 0 mm 3 mps 760 mmHg 65%
    01:00 +7°C° 0 mm 3 mps 760 mmHg 66%
    02:00 +5°C° 0 mm 4 mps 760 mmHg 68%
    03:00 +5°C° 0 mm 4 mps 759 mmHg 69%
    04:00 +5°C° 0 mm 4 mps 759 mmHg 70%
    05:00 +5°C° 0 mm 4 mps 758 mmHg 71%
    06:00 +6°C° 0 mm 5 mps 757 mmHg 64%
    07:00 +8°C° 0 mm 5 mps 757 mmHg 58%
    08:00 +9°C° 0 mm 6 mps 756 mmHg 52%
    09:00 +11°C° 0 mm 6 mps 756 mmHg 47%
    10:00 +12°C° 0 mm 7 mps 755 mmHg 43%
    11:00 +15°C° 0 mm 7 mps 755 mmHg 38%
    12:00 +15°C° 0 mm 7 mps 755 mmHg 41%
    13:00 +16°C° 0 mm 7 mps 754 mmHg 44%
    14:00 +16°C° 0 mm 7 mps 754 mmHg 47%
    15:00 +15°C° 0 mm 7 mps 754 mmHg 49%
    16:00 +14°C° 0 mm 6 mps 753 mmHg 51%
    17:00 +13°C° 0 mm 6 mps 753 mmHg 54%
    18:00 +12°C° 0 mm 5 mps 753 mmHg 59%
    19:00 +10°C° 0 mm 4 mps 754 mmHg 63%
    20:00 +9°C° 0 mm 3 mps 754 mmHg 68%
    21:00 +8°C° 0 mm 3 mps 754 mmHg 71%
    22:00 +8°C° 0 mm 2 mps 754 mmHg 74%
    23:00 +7°C° 0 mm 2 mps 754 mmHg 77%

    Pasado mañana, 9 Abril, Jueves

    Tiempo Temperatura Precipitaciones Viento Presión Humedad
    00:00 +7°C° 0 mm 2 mps 754 mmHg 79%
    01:00 +6°C° 0 mm 2 mps 754 mmHg 81%
    02:00 +7°C° 0 mm 1 mps 754 mmHg 83%
    03:00 +6°C° 0 mm 1 mps 754 mmHg 84%
    04:00 +6°C° 0 mm 1 mps 754 mmHg 86%
    05:00 +6°C° 0 mm 1 mps 754 mmHg 87%
    06:00 +7°C° 0 mm 1 mps 753 mmHg 81%
    07:00 +8°C° 0 mm 1 mps 753 mmHg 74%
    08:00 +10°C° 0 mm 1 mps 753 mmHg 68%
    09:00 +11°C° 0 mm 1 mps 753 mmHg 61%
    10:00 +12°C° 0 mm 2 mps 752 mmHg 55%
    11:00 +13°C° 0 mm 2 mps 752 mmHg 48%
    12:00 +14°C° 0 mm 2 mps 752 mmHg 45%
    13:00 +15°C° 0 mm 2 mps 751 mmHg 42%
    14:00 +16°C° 0 mm 2 mps 751 mmHg 38%
    15:00 +16°C° 0 mm 2 mps 750 mmHg 39%
    16:00 +16°C° 0 mm 2 mps 750 mmHg 39%
    17:00 +16°C° 0 mm 2 mps 749 mmHg 39%
    18:00 +15°C° 0 mm 2 mps 749 mmHg 43%
    19:00 +13°C° 0 mm 2 mps 749 mmHg 47%
    20:00 +12°C° 0 mm 2 mps 749 mmHg 51%
    21:00 +11°C° 0 mm 3 mps 748 mmHg 53%
    22:00 +10°C° 0 mm 3 mps 748 mmHg 56%
    23:00 +9°C° 0 mm 3 mps 748 mmHg 58%

    10 Abril, Viernes

    Tiempo Temperatura Precipitaciones Viento Presión Humedad
    00:00 +8°C° 0 mm 4 mps 747 mmHg 57%
    01:00 +8°C° 0 mm 4 mps 747 mmHg 57%
    02:00 +8°C° 0 mm 4 mps 746 mmHg 57%
    03:00 +8°C° 0 mm 4 mps 746 mmHg 58%
    04:00 +8°C° 0 mm 4 mps 745 mmHg 59%
    05:00 +8°C° 0 mm 4 mps 745 mmHg 60%
    06:00 +10°C° 0 mm 4 mps 745 mmHg 60%
    07:00 +11°C° 0 mm 4 mps 744 mmHg 59%
    08:00 +12°C° 0 mm 5 mps 744 mmHg 58%
    09:00 +13°C° 0 mm 5 mps 744 mmHg 56%
    10:00 +14°C° 0 mm 6 mps 744 mmHg 55%
    11:00 +15°C° 0 mm 6 mps 744 mmHg 53%
    12:00 +13°C° 0.4 mm 6 mps 744 mmHg 59%
    13:00 +11°C° 0.4 mm 6 mps 744 mmHg 65%
    14:00 +9°C° 0.4 mm 5 mps 744 mmHg 71%
    15:00 +9°C° 0.1 mm 6 mps 744 mmHg 69%
    16:00 +9°C° 0.1 mm 7 mps 745 mmHg 66%
    17:00 +9°C° 0.1 mm 8 mps 745 mmHg 63%
    18:00 +8°C° 0 mm 7 mps 745 mmHg 62%
    19:00 +7°C° 0 mm 6 mps 746 mmHg 62%
    20:00 +5°C° 0 mm 6 mps 746 mmHg 61%
    21:00 +4°C° 0 mm 6 mps 747 mmHg 62%
    22:00 +3°C° 0 mm 6 mps 747 mmHg 63%
    23:00 +3°C° 0 mm 6 mps 747 mmHg 64%

    11 Abril, Sábado

    Tiempo Temperatura Precipitaciones Viento Presión Humedad
    00:00 +2°C° 0 mm 5 mps 747 mmHg 66%
    01:00 +2°C° 0 mm 5 mps 748 mmHg 68%
    02:00 +1°C° 0 mm 5 mps 748 mmHg 70%
    03:00 +1°C° 0 mm 5 mps 748 mmHg 72%
    04:00 +1°C° 0 mm 5 mps 748 mmHg 74%
    05:00 0°C° 0 mm 5 mps 749 mmHg 75%
    06:00 +1°C° 0 mm 5 mps 749 mmHg 68%
    07:00 +2°C° 0 mm 6 mps 749 mmHg 61%
    08:00 +3°C° 0 mm 6 mps 750 mmHg 54%
    09:00 +5°C° 0 mm 6 mps 750 mmHg 50%
    10:00 +7°C° 0 mm 6 mps 750 mmHg 46%
    11:00 +8°C° 0 mm 6 mps 750 mmHg 42%
    12:00 +8°C° 0 mm 5 mps 750 mmHg 42%
    13:00 +8°C° 0 mm 5 mps 751 mmHg 43%
    14:00 +8°C° 0 mm 5 mps 751 mmHg 43%
    15:00 +8°C° 0 mm 5 mps 751 mmHg 44%
    16:00 +8°C° 0 mm 5 mps 751 mmHg 46%
    17:00 +7°C° 0 mm 5 mps 751 mmHg 47%
    18:00 +6°C° 0 mm 4 mps 752 mmHg 51%
    19:00 +5°C° 0 mm 3 mps 752 mmHg 56%
    20:00 +5°C° 0 mm 2 mps 752 mmHg 60%
    21:00 +5°C° 0 mm 2 mps 753 mmHg 62%
    22:00 +4°C° 0 mm 2 mps 753 mmHg 64%
    23:00 +3°C° 0 mm 2 mps 753 mmHg 66%

    12 Abril, Domingo

    Tiempo Temperatura Precipitaciones Viento Presión Humedad
    00:00 +3°C° 0 mm 2 mps 753 mmHg 67%
    01:00 +3°C° 0 mm 2 mps 753 mmHg 67%
    02:00 +2°C° 0 mm 2 mps 753 mmHg 68%
    03:00 +2°C° 0 mm 2 mps 753 mmHg 69%
    04:00 +2°C° 0 mm 1 mps 754 mmHg 69%
    05:00 +2°C° 0 mm 1 mps 754 mmHg 70%
    06:00 +3°C° 0 mm 1 mps 754 mmHg 65%
    07:00 +5°C° 0 mm 1 mps 754 mmHg 60%
    08:00 +6°C° 0 mm 1 mps 754 mmHg 56%
    09:00 +7°C° 0 mm 1 mps 754 mmHg 50%
    10:00 +8°C° 0 mm 0 mps 754 mmHg 45%
    11:00 +9°C° 0 mm 0 mps 754 mmHg 39%
    12:00 +10°C° 0 mm 1 mps 754 mmHg 37%
    13:00 +11°C° 0 mm 1 mps 754 mmHg 35%
    14:00 +10°C° 0 mm 2 mps 753 mmHg 33%
    15:00 +10°C° 0 mm 2 mps 753 mmHg 34%
    16:00 +10°C° 0 mm 2 mps 753 mmHg 35%
    17:00 +10°C° 0 mm 2 mps 752 mmHg 36%
    18:00 +9°C° 0 mm 2 mps 752 mmHg 40%
    19:00 +8°C° 0 mm 2 mps 752 mmHg 44%
    20:00 +7°C° 0 mm 2 mps 752 mmHg 48%
    21:00 +7°C° 0 mm 2 mps 752 mmHg 51%
    22:00 +6°C° 0 mm 2 mps 752 mmHg 53%
    23:00 +6°C° 0 mm 2 mps 752 mmHg 56%
    Mostrar más